STARLINK-5727, 55587

Orbit data source: Space-Track

STARLINK-5727, 55587 is a payload satellite owned by SpaceX/Seattle (US) in LEO that was launched on Sun, 12 Feb 2023 UTC via an FALCON 9 launch vehicle from the Air Force Eastern Test Range (AFETR). Payload-class satellites include a variety of spacecraft equipped with specific instruments for various scientific and technological missions. These include communications satellites like Starlink; space stations such as the ISS; scientific satellites like the Hubble; Earth observation satellites from companies like Planet Labs, Umbra, and HawkEye 360; GPS; miniature CubeSats for education and research; and military/defense satellites.

Loading next visibility...
Identifier
55587, 2023-020U
Orbit
LEO
Country
Flag of USUS
Related business
Manufacturer
SpaceX/Seattle
Mission
Operational Commercial Communications
Bus & Motor
STARLINK, Unknown motor
Mass
305 kg wet, ~290 kg dry
Launch date (UTC)
2023-02-12 (3 years ago)
Launch vehicle
FALCON 9
Launch site
Air Force Eastern Test Range (AFETR)
Object type
Payload
Rocket body
Debris
Shape & HBR
Box + 1 Pan, 10.1 m
Radar Cross Section
13.562 m², Large (>1 m²)

Expand to show TLE details & history
Last TLE update: 11 hours ago

TLE from 11 hours ago
0 STARLINK-5727
1 55587U 23020U   26062.00137030  .00009240  00000-0  69861-3 0  9995
2 55587  43.0054  40.8793 0000146 272.7668  87.3158 15.02512130167914
Epoch: 2026-03-03T00:01Z
TLE epoch observation values (Epoch: 2026-03-03T00:01:58.393Z)
Latitude
-0.00001°
Longitude
-120.40072°
Altitude
558.927 km
Speed
7.584 km/s
True Right ascension
02h 43m 31s
True Declination
0° 00' 00"
Sunlit
Object was in daylight at epoch
Visualization orbit readout
Latitude
Unknown
Longitude
Unknown
Altitude
Unknown
Speed
Unknown
Apparent Right ascension
Unknown
Apparent Declination
Unknown
Sunlit
N/A
Visualization observer readout
Local Sidereal Time
14:45:27
Azimuth
Unknown
Elevation
Unknown
Doppler factor
Unknown
Orbital elements
Apogee altitude
561.177 km
Perigee altitude
560.975 km
Semi-major axis
6,939.213 km
Eccentricity
0.00001
Inclination
43.0054°
RAAN
40.8793°
Arg. of periapsis
272.7668°
True anomaly
87.31747°
Mean anomaly
87.3158°
Eccentric anomaly
87.31664°
Mean motion
3.75472 °/min
Orbital period
95.88 mins
BSTAR
0.00069861
Loading maneuver chart data...
Computing Atmospheric mass density...

Documentation

Showing up to 5 results
|